map of KER home
KER - Airport
Location
City:  Kerman, Kerman, Iran
ICAO:OIKK
IATA:KER

Details
Type:Airport (Aerodrome, Airfield)
Use:Public/Civil
Latitude:3016'28"N (30.274444)
Longitude:5657'04"E (56.951111)
Datum:WGS 1984
Elevation:5741 ft (1750 m)
Variation:3.00E (WMM2015v2 magnetic declination)
0.06 annual change
Runways:2
Longest:12620 × 148 ft (3847 × 45 m), paved

Time
Time Zone:UTC+3:30 (DST+4:30)
Local Time:

Weather
METAR:OIKK 041400Z 34010KT 9999 FEW040 06/M10 Q1020 A3013
TAF:OIKK 041100Z 0412/0518 07008KT 7000 FEW030CB SCT040 SCT100
TEMPO 0421/0503 3000 BR

Related Locations
Nearby:
Farthest:IPC: 11591 mi / 18654 km
Easter Island (Isla de Pascua, Rapa Nui) [Mataveri Intl], VS, CL

Find:

   beyond  
but within

Other Information
Maps:
NOTAMs:
Links:
Sources:

  
  • flag of Iran
  

Sectional Chart

Flight Planning
at skyvector.com

Satellite Image

Google Maps Satellite view

 

Copyright © 2004-2019 Karl L. Swartz. All rights reserved.
The Great Circle Mapper name and logo are trademarks of the Great Circle Mapper.
All other trademarks mentioned herein belong to their respective owners.
Please see credits for attibutions and further copyright information.

  Follow gcmap on Facebook Follow gcmap on Twitter GCmap on LinkedIn

hCard Microformat

Geo Microformat